Location: Bari
(41.1330°N, 16.8500°E)
Time: 02:29:05
(UTC+02:00)

ISS - Pass Details

Date: 16 May 2021
Orbit: 417 x 422 km, 51.6° (Epoch: 14 June)

Event Time Altitude Azimuth Distance (km) Brightness Sun altitude
Rises 22:51:06 0° 274° (W) 2,360 0.5 -23.7°
Reaches altitude 10° 22:53:34 10° 292° (WNW) 1,499 -0.3 -23.9°
Maximum altitude 22:56:09 20° 342° (NNW) 1,029 -1.0 -24.1°
Drops below altitude 10° 22:58:45 10° 32° (NNE) 1,505 -0.6 -24.4°
Sets 23:01:14 0° 50° (NE) 2,372 0.2 -24.6°
